Regional Weather Roundup
Issued by NWS New Orleans/Baton Rouge, LA

Home | Current Version | Previous Version | Graphics & Text | Print | Product List | Glossary On
Versions: 1 2 3 4 5 6 7 8 9 10 11 12 13 14 15 16 17 18 19 20 21 22 23 24 25 26 27 28 29 30 31 32 33 34 35 36 37 38 39 40 41 42 43 44 45 46 47 48 49 50
625
ASUS44 KLIX 252101
RWRLIX
NEW ORLEANS REGIONAL WEATHER ROUNDUP
NATIONAL WEATHER SERVICE NEW ORLEANS LA
300 PM CST TUE NOV 25 2014

NOTE: "FAIR" INDICATES FEW OR NO CLOUDS BELOW 12,000 FEET WITH NO
      SIGNIFICANT WEATHER AND/OR OBSTRUCTIONS TO VISIBILITY.
      SKY/WX - SKY CONDITION AND SIGNIFICANT WEATHER.
      TMP - AIR TEMPERATURE.     DP    - DEWPOINT TEMPERATURE.
      RH  - RELATIVE HUMIDITY.   PRES  - PRESSURE.
      HI  - HEAT INDEX.          WCI   - WIND CHILL INDEX.

*  THESE STATIONS ARE NOT NWS OR FAA STATIONS AND ARE NOT UNDER
   NWS QUALITY CONTROL.

LAZ038-040-048-061>063-065>067-069-252200-
SOUTHEAST LOUISIANA

CITY           SKY/WX    TMP DP  RH WIND       PRES   REMARKS
N.O. AUDUBON   NOT AVBL
N.O. INTL ARPT CLOUDY    56  32  40 NW12      30.16R
N.O. LAKEFRONT CLOUDY    56  33  42 N18       30.14R
N.O. DOWNTOWN* CLOUDY    55  28  35 NW7G17    30.16R
SLIDELL        CLOUDY    54  31  41 NW6       30.15R
BATON ROUGE    CLOUDY    54  25  32 N8        30.17R
BOOTHVILLE     CLOUDY    57  40  52 NW15      30.11S
BELLE CHASSE   CLOUDY    57  28  33 N10G16    30.13S
BOGALUSA*        N/A     55  34  45 N6        30.15R
NEW ROADS*     NOT AVBL
GONZALES*      NOT AVBL
HAMMOND*       NOT AVBL
HOUMA*         NOT AVBL
PORT FOURCHON* CLOUDY    57  32  38 N13       30.19R

$$

MSZ070-080>082-252200-
SOUTHERN MISSISSIPPI

CITY           SKY/WX    TMP DP  RH WIND       PRES   REMARKS
MCCOMB         CLOUDY    52  25  35 N10       30.15R
GULFPORT       CLOUDY    56  35  45 NW12      30.10R
BILOXI         CLOUDY    56  35  44 N9        30.11R
PASCAGOULA     CLOUDY    57  30  35 NW6       30.11R

$$

COASTAL OBSERVATIONS
LAKE AND NEARSHORE STATIONS

STATION/POSITION TIME  TEMP    WIND        PRES    WAVE
                       AIR SEA DIR/SP/G            HT/PER
                 (UTC) (F)     (DEG/KT/KT) (MB)    (FT/S)
PASCAGOULA       2000   60     350/  8/ 12 1017.2
WAVELAND YACHT   2000   56     330/ 12/ 15 1018.9
GRAND ISLE       2000   57 62  360/ 15/ 18 1020.2
SOUTHWEST PASS   2000   58                 1020.3
NEW CANAL        2000   55 55  340/  8/ 14 1021.1
SHELL BEACH      2000   55 54  330/ 18/ 20 1019.9

OFFSHORE STATIONS

STATION/POSITION TIME  TEMP    WIND        PRES    WAVE
                       AIR SEA DIR/SP/G            HT/PER
                 (UTC) (F)     (DEG/KT/KT) (MB)    (FT/S)
64 S DAUPHIN ISL 2037   59 72   20/ 19/ 25 1017.7    6/ 7

$$




USA.gov is the U.S. government's official web portal to all federal, state and local government web resources and services.